Back to catalog

COSMOS 791

AliveMilitaryLEO
NORAD 8607·PAYLOAD·🇷🇺 Russia

Launched Jan 28, 1976 from Plesetsk Cosmodrome

Loading…

Next Passes (next 24 hours)

TLE

FreshSource: Space-Track

Epoch: Sep 14, 2026, 14:15 UTC

1 08607U 76008A   26257.59406833 -.00000017  00000-0 -11306-4 0  9997
2 08607  74.0586  13.0782 0053917  86.8279 285.3177 12.55046926319533

Track COSMOS 791 in real time with AllMySat

Download on the App Store